| time (UTC) | temp F | wind direction | speed knots | gust knots | rain 1hr in | rain 24hr in | rain mn in | humidity % | barometer mb |
| 20260906033057 | 66 | 0.0 | 0.0 | 0.00 | 0.03 | 0.03 | 93 | 1015.6 | |
| 20260906031603 | 67 | 0.0 | 0.0 | 0.00 | 0.03 | 0.03 | 93 | 1015.6 | |
| 20260906030057 | 67 | 0.0 | 0.0 | 0.00 | 0.03 | 0.03 | 92 | 1015.5 | |
| 20260906024557 | 67 | 0.0 | 0.0 | 0.00 | 0.04 | 0.03 | 92 | 1015.5 | |
| 20260906023059 | 68 | 0.0 | 0.0 | 0.00 | 0.04 | 0.03 | 91 | 1015.4 | |
| 20260906021555 | 68 | 0.0 | 0.0 | 0.00 | 0.04 | 0.03 | 91 | 1015.4 | |
| 20260906014555 | 68 | 0.0 | 0.0 | 0.00 | 0.04 | 0.03 | 90 | 1015.3 | |
| 20260906013054 | 69 | 0.0 | 0.0 | 0.00 | 0.04 | 0.03 | 90 | 1015.4 | |
| 20260906011554 | 69 | 0.0 | 0.0 | 0.00 | 0.04 | 0.03 | 90 | 1015.2 | |
| 20260906010054 | 69 | 0.0 | 0.0 | 0.00 | 0.04 | 0.03 | 90 | 1014.9 | |
| 20260906004553 | 69 | 0.0 | 0.0 | 0.00 | 0.04 | 0.03 | 90 | 1014.2 | |
| 20260906003053 | 70 | 0.0 | 0.0 | 0.00 | 0.04 | 0.03 | 89 | 1013.9 | |
| 20260906001552 | 70 | 0.0 | 0.0 | 0.00 | 0.04 | 0.03 | 88 | 1013.9 | |
| 20260906000053 | 71 | 0.0 | 0.0 | 0.00 | 0.04 | 0.03 | 87 | 1013.6 | |
| 20260905234553 | 71 | 0.0 | 0.0 | 0.01 | 0.04 | 0.03 | 85 | 1013.4 | |
| 20260905233052 | 72 | 0.0 | 0.0 | 0.01 | 0.04 | 0.03 | 84 | 1013.1 | |
| 20260905231552 | 72 | 0.0 | 0.0 | 0.01 | 0.04 | 0.03 | 83 | 1013.0 | |
| 20260905230054 | 72 | 0.0 | 0.0 | 0.01 | 0.04 | 0.03 | 82 | 1012.9 | |
| 20260905224603 | 73 | 0.0 | 0.0 | 0.01 | 0.04 | 0.03 | 83 | 1013.2 | |
| 20260905223051 | 73 | 0.0 | 0.0 | 0.00 | 0.03 | 0.02 | 82 | 1013.2 | |
| 20260905221557 | 72 | 0.0 | 0.0 | 0.00 | 0.03 | 0.02 | 83 | 1013.4 | |
| 20260905220058 | 72 | 0.0 | 0.0 | 0.00 | 0.03 | 0.02 | 83 | 1013.6 | |
| 20260905214545 | 71 | 0.0 | 0.0 | 0.00 | 0.03 | 0.02 | 86 | 1013.9 | |
| 20260905213043 | 70 | 0.0 | 0.0 | 0.00 | 0.03 | 0.02 | 88 | 1014.0 | |
| 20260905211543 | 69 | 0.0 | 0.0 | 0.00 | 0.03 | 0.02 | 88 | 1014.1 | |
| 20260905210042 | 68 | 0.0 | 0.0 | 0.00 | 0.03 | 0.02 | 89 | 1015.0 | |
| 20260905204542 | 68 | 0.0 | 0.0 | 0.00 | 0.03 | 0.02 | 88 | 1015.1 | |
| 20260905203056 | 68 | 0.0 | 0.0 | 0.00 | 0.03 | 0.02 | 88 | 1015.6 | |
| 20260905201544 | 68 | 0.0 | 0.0 | 0.00 | 0.03 | 0.02 | 89 | 1016.2 | |
| 20260905200051 | 68 | 0.0 | 0.0 | 0.00 | 0.03 | 0.02 | 87 | 1016.3 | |
| 20260905194539 | 69 | 0.0 | 0.0 | 0.00 | 0.03 | 0.02 | 85 | 1016.9 | |
| 20260905193039 | 70 | 0.0 | 0.0 | 0.00 | 0.03 | 0.02 | 84 | 1017.2 | |
| 20260905191538 | 71 | 0.0 | 0.0 | 0.00 | 0.03 | 0.02 | 83 | 1017.2 | |
| 20260905190038 | 70 | 0.0 | 0.0 | 0.00 | 0.03 | 0.02 | 85 | 1016.8 | |
| 20260905184537 | 69 | 0.0 | 0.0 | 0.00 | 0.04 | 0.02 | 87 | 1016.5 | |
| 20260905183035 | 70 | 0.0 | 0.0 | 0.00 | 0.04 | 0.02 | 85 | 1016.6 | |
| 20260905181548 | 70 | 0.0 | 0.0 | 0.00 | 0.04 | 0.02 | 84 | 1016.3 | |
| 20260905180035 | 70 | 0.0 | 0.0 | 0.00 | 0.04 | 0.02 | 84 | 1015.9 | |
| 20260905174542 | 70 | 0.0 | 0.0 | 0.00 | 0.04 | 0.02 | 83 | 1016.2 | |
| 20260905173034 | 70 | 0.0 | 0.0 | 0.00 | 0.04 | 0.02 | 85 | 1016.0 | |
| 20260905171513 | 69 | 0.0 | 0.0 | 0.00 | 0.04 | 0.02 | 86 | 1016.0 | |
| 20260905170007 | 68 | 0.0 | 0.0 | 0.01 | 0.04 | 0.02 | 89 | 1015.8 | |
| 20260905163038 | 66 | 0.0 | 0.0 | 0.01 | 0.04 | 0.02 | 92 | 1016.4 | |
| 20260905161538 | 65 | 0.0 | 0.0 | 0.01 | 0.04 | 0.02 | 92 | 1016.2 | |
| 20260905160107 | 65 | 0.0 | 0.0 | 0.00 | 0.03 | 0.01 | 93 | 1016.6 | |
| 20260905153037 | 65 | 0.0 | 0.0 | 0.00 | 0.03 | 0.01 | 95 | 1016.7 | |
| 20260905151536 | 64 | 0.0 | 0.0 | 0.00 | 0.03 | 0.01 | 95 | 1016.1 | |
| 20260905150035 | 64 | 0.0 | 0.0 | 0.00 | 0.03 | 0.01 | 96 | 1016.2 | |
| 20260905143034 | 63 | 0.0 | 0.0 | 0.00 | 0.03 | 0.01 | 96 | 1015.7 | |
| 20260905141540 | 63 | 0.0 | 0.0 | 0.00 | 0.03 | 0.01 | 96 | 1016.2 | |
| 20260905140034 | 63 | 0.0 | 0.0 | 0.00 | 0.03 | 0.01 | 96 | 1015.8 | |
| 20260905133013 | 63 | 0.0 | 0.0 | 0.00 | 0.03 | 0.01 | 96 | 1015.8 | |
| 20260905131512 | 63 | 0.0 | 0.0 | 0.00 | 0.03 | 0.01 | 96 | 1016.0 | |
| 20260905130001 | 63 | 0.0 | 0.0 | 0.00 | 0.03 | 0.01 | 96 | 1015.9 | |
| 20260905124601 | 62 | 0.0 | 0.0 | 0.00 | 0.04 | 0.01 | 95 | 1015.4 | |
| 20260905123058 | 62 | 0.0 | 0.0 | 0.00 | 0.04 | 0.01 | 95 | 1015.5 | |
| 20260905121558 | 63 | 0.0 | 0.0 | 0.00 | 0.04 | 0.01 | 95 | 1015.4 | |
| 20260905120114 | 63 | 0.0 | 0.0 | 0.00 | 0.04 | 0.01 | 94 | 1015.3 | |
| 20260905114554 | 63 | 0.0 | 0.0 | 0.00 | 0.04 | 0.01 | 94 | 1014.8 | |
| 20260905113053 | 63 | 0.0 | 0.0 | 0.00 | 0.04 | 0.01 | 94 | 1015.0 | |
| 20260905111608 | 63 | 0.0 | 0.0 | 0.00 | 0.04 | 0.01 | 94 | 1015.0 | |
| 20260905110058 | 63 | 0.0 | 0.0 | 0.00 | 0.04 | 0.01 | 94 | 1014.3 | |
| 20260905104552 | 63 | 0.0 | 0.0 | 0.00 | 0.04 | 0.01 | 94 | 1014.6 | |
| 20260905103054 | 63 | 0.0 | 0.0 | 0.00 | 0.04 | 0.01 | 94 | 1014.0 | |
| 20260905101552 | 63 | 0.0 | 0.0 | 0.00 | 0.04 | 0.01 | 94 | 1014.0 | |
| 20260905100054 | 63 | 0.0 | 0.0 | 0.00 | 0.04 | 0.01 | 94 | 1013.7 | |
| 20260905094550 | 63 | 0.0 | 0.0 | 0.00 | 0.05 | 0.01 | 94 | 1014.0 | |
| 20260905093048 | 63 | 0.0 | 0.0 | 0.00 | 0.05 | 0.01 | 94 | 1014.0 | |
| 20260905091615 | 64 | 0.0 | 0.0 | 0.00 | 0.05 | 0.01 | 94 | 1014.0 | |
| 20260905090024 | 64 | 0.0 | 0.0 | 0.00 | 0.05 | 0.01 | 93 | 1014.4 | |
| 20260905084523 | 65 | 0.0 | 0.0 | 0.00 | 0.05 | 0.01 | 93 | 1014.5 | |
| 20260905083025 | 65 | 0.0 | 0.0 | 0.01 | 0.05 | 0.01 | 93 | 1014.7 | |
| 20260905081524 | 65 | 0.0 | 0.0 | 0.01 | 0.05 | 0.01 | 93 | 1014.4 | |
| 20260905080029 | 65 | 0.0 | 0.0 | 0.01 | 0.05 | 0.01 | 92 | 1014.5 | |
| 20260905074522 | 65 | 0.0 | 0.0 | 0.01 | 0.06 | 0.01 | 92 | 1014.4 | |
| 20260905073020 | 66 | 0.0 | 0.0 | 0.01 | 0.06 | 0.01 | 92 | 1014.3 | |
| 20260905071522 | 66 | 0.0 | 0.0 | 0.00 | 0.05 | 0.00 | 92 | 1014.6 | |
| 20260905070023 | 66 | 0.0 | 0.0 | 0.00 | 0.05 | 0.00 | 91 | 1014.6 | |
| 20260905064519 | 66 | 0.0 | 0.0 | 0.00 | 0.05 | 0.00 | 91 | 1014.5 | |
| 20260905063058 | 66 | 0.0 | 0.0 | 0.00 | 0.05 | 0.00 | 91 | 1014.8 | |
| 20260905061620 | 66 | 0.0 | 0.0 | 0.00 | 0.05 | 0.00 | 91 | 1014.8 | |
| 20260905060117 | 66 | 0.0 | 0.0 | 0.00 | 0.05 | 0.00 | 91 | 1014.9 | |
| 20260905060001 | 66 | 0.0 | 0.0 | 0.00 | 0.05 | 0.00 | 91 | 1015.0 | |
| 20260905054559 | 66 | 0.0 | 0.0 | 0.00 | 0.06 | 0.00 | 91 | 1014.7 | |
| 20260905053015 | 66 | 0.0 | 0.0 | 0.00 | 0.06 | 0.00 | 90 | 1014.8 | |
| 20260905051515 | 66 | 0.0 | 0.0 | 0.00 | 0.06 | 0.00 | 91 | 1014.6 | |
| 20260905050010 | 66 | 0.0 | 0.0 | 0.00 | 0.06 | 0.00 | 91 | 1014.5 | |
| 20260905044510 | 66 | 0.0 | 0.0 | 0.00 | 0.06 | 0.06 | 90 | 1014.7 | |
| 20260905043020 | 67 | 0.0 | 0.0 | 0.00 | 0.06 | 0.06 | 90 | 1014.8 | |
| 20260905041509 | 66 | 0.0 | 0.0 | 0.00 | 0.06 | 0.06 | 90 | 1014.8 | |
| 20260905040009 | 67 | 0.0 | 0.0 | 0.00 | 0.06 | 0.06 | 90 | 1014.6 | |
| 20260905034508 | 67 | 0.0 | 0.0 | 0.01 | 0.06 | 0.06 | 90 | 1014.8 |